Ono, PA

3:03 PM EDT on October 01, 2016 (GMT -0400)
Muir Army Air Field

Weather History for KMUI - July, 2013

Change the Weather History Date:

Tuesday, July 9, 2013

  Actual Average Record
Temperature  
Mean Temperature 74 °F -  
Max Temperature 84 °F 80 °F 93 °F (1999)
Min Temperature 66 °F 66 °F 62 °F (2004)
Cooling Degree Days 9    
Growing Degree Days 24 (Base 50)    
Moisture  
Dew Point 69 °F    
Average Humidity 88    
Maximum Humidity 100    
Minimum Humidity 60    
Precipitation  
Precipitation 0.06 in - - ()
Sea Level Pressure  
Sea Level Pressure 30.08 in    
Wind  
Wind Speed 1 mph (SSW)    
Max Wind Speed 18 mph    
Max Gust Speed 24 mph    
Visibility 8 miles    
Events Rain    
Averages and records for this station are not official NWS values.
T = Trace of Precipitation, MM = Missing Value Source: NWS Daily Summary

Daily Weather History Graph

Daily Weather History Graph

Search for Another Location

Airport or City:

Trip Planner

Search our weather history database for the weather conditions in past years. The results will help you decide how hot, cold, wet, or windy it might be!

Date:

Astronomy

Jul. 09, 2013 Rise Set
Actual Time 5:44 AM EDT 8:38 PM EDT
Civil Twilight 5:12 AM EDT 9:10 PM EDT
Nautical Twilight 4:30 AM EDT 9:51 PM EDT
Astronomical Twilight 3:43 AM EDT 10:39 PM EDT
Moon 7:07 AM EDT (7/9) 9:13 PM EDT (7/9)
Length of Visible Light 15h 58m
Length of Day
14h 53m
New Moon, 2% of the Moon is Illuminated
Jul 9
New Moon
Jul 15
First Quarter
Jul 22
Full
Jul 29
Last Quarter
Aug 6
New

Hourly Weather History & Observations

Time (EDT) Temp. Heat Index Dew Point Humidity Pressure Visibility Wind Dir Wind Speed Gust Speed Precip Events Conditions
12:58 AM 67.5 °F - 67.1 °F 99% 30.09 in 6.0 mi Calm Calm - N/A   Mostly Cloudy
1:58 AM 66.9 °F - 66.6 °F 99% 30.08 in 6.0 mi Calm Calm - N/A   Clear
2:58 AM 66.6 °F - 66.4 °F 99% 30.09 in 5.0 mi Calm Calm - N/A   Scattered Clouds
3:58 AM 67.6 °F - 67.5 °F 99% 30.07 in 7.0 mi Calm Calm - N/A   Clear
4:58 AM 66.6 °F - 66.4 °F 99% 30.08 in 3.0 mi Calm Calm - N/A   Partly Cloudy
5:48 AM 66.2 °F - 66.2 °F 100% 30.09 in 2.5 mi Calm Calm - N/A   Clear
5:52 AM 66.2 °F - 66.2 °F 100% 30.09 in 3.0 mi Calm Calm - N/A   Partly Cloudy
5:54 AM 66.2 °F - 66.2 °F 100% 30.09 in 2.5 mi Calm Calm - N/A   Partly Cloudy
5:58 AM 66.6 °F - 66.4 °F 99% 30.09 in 2.5 mi Calm Calm - N/A   Partly Cloudy
6:00 AM 66.2 °F - 66.2 °F 100% 30.09 in 3.0 mi Calm Calm - N/A   Clear
6:58 AM 68.0 °F - 67.8 °F 99% 30.10 in 8.0 mi Calm Calm - N/A   Clear
7:58 AM 69.8 °F - 69.4 °F 99% 30.09 in 7.0 mi Calm Calm - N/A   Clear
8:14 AM 69.8 °F - 69.8 °F 100% 30.09 in 7.0 mi Calm Calm - N/A Rain Light Rain
8:24 AM 69.8 °F - 69.8 °F 100% 30.10 in 8.0 mi Calm Calm - N/A   Clear
8:58 AM 71.6 °F - 71.2 °F 99% 30.10 in 9.0 mi Calm Calm - 0.00 in   Partly Cloudy
9:11 AM 71.6 °F - 71.6 °F 100% 30.10 in 10.0 mi Calm Calm - N/A Rain Light Rain
9:21 AM 73.4 °F - 71.6 °F 94% 30.10 in 10.0 mi Calm Calm - N/A   Clear
9:23 AM 73.4 °F - 71.6 °F 94% 30.10 in 10.0 mi Calm Calm - N/A Rain Light Rain
9:34 AM 73.4 °F - 69.8 °F 88% 30.09 in 10.0 mi Calm Calm - N/A   Partly Cloudy
9:53 AM 73.4 °F - 69.8 °F 88% 30.10 in 10.0 mi Calm Calm - N/A   Light Drizzle
9:58 AM 74.1 °F - 70.0 °F 87% 30.10 in 10.0 mi Calm Calm - 0.00 in   Light Drizzle
10:08 AM 75.2 °F - 69.8 °F 83% 30.10 in 10.0 mi Calm Calm - N/A   Partly Cloudy
10:09 AM 75.2 °F - 69.8 °F 83% 30.10 in 10.0 mi Calm Calm - N/A   Light Drizzle
10:19 AM 77.0 °F - 71.6 °F 83% 30.10 in 10.0 mi Calm Calm - N/A   Scattered Clouds
10:54 AM 78.8 °F - 71.6 °F 78% 30.09 in 10.0 mi Calm Calm - N/A Rain Light Rain
10:58 AM 78.1 °F - 71.1 °F 79% 30.09 in 10.0 mi Calm Calm - 0.00 in Rain Light Rain
10:59 AM 78.8 °F - 71.6 °F 78% 30.10 in 10.0 mi Calm Calm - N/A   Scattered Clouds
11:58 AM 79.7 °F - 72.5 °F 79% 30.09 in 10.0 mi Calm Calm - 0.00 in   Scattered Clouds
12:58 PM 82.2 °F 86.4 °F 70.7 °F 68% 30.09 in 10.0 mi South 6.9 mph - N/A   Mostly Cloudy
1:58 PM 82.8 °F 86.4 °F 69.3 °F 64% 30.07 in 10.0 mi SW 6.9 mph - N/A   Mostly Cloudy
2:01 PM 82.4 °F 86.3 °F 69.8 °F 66% 30.07 in 6.0 mi SSW 15.0 mph - N/A Rain Light Rain
2:03 PM 80.6 °F 84.6 °F 71.6 °F 74% 30.08 in 3.0 mi SSW 18.4 mph 24.2 mph N/A Rain Heavy Rain
2:14 PM 75.2 °F - 69.8 °F 83% 30.08 in 9.0 mi South 11.5 mph - N/A   Mostly Cloudy
2:58 PM 77.9 °F - 70.2 °F 77% 30.06 in 10.0 mi Variable 4.6 mph - 0.05 in   Scattered Clouds
3:58 PM 82.8 °F 85.5 °F 67.6 °F 60% 30.06 in 10.0 mi WSW 11.5 mph 18.4 mph 0.01 in   Scattered Clouds
4:58 PM 77.9 °F - 67.8 °F 71% 30.05 in 10.0 mi Calm Calm - N/A   Overcast
5:58 PM 76.1 °F - 68.9 °F 78% 30.03 in 10.0 mi Calm Calm - N/A   Mostly Cloudy
6:58 PM 75.9 °F - 69.4 °F 80% 30.01 in 10.0 mi Calm Calm - N/A   Mostly Cloudy
7:58 PM 76.3 °F - 69.1 °F 78% 30.02 in 10.0 mi Calm Calm - N/A   Partly Cloudy
8:58 PM 71.8 °F - 70.7 °F 96% 30.04 in 10.0 mi Calm Calm - N/A   Clear
9:58 PM 70.0 °F - 69.6 °F 99% 30.06 in 9.0 mi Calm Calm - N/A   Scattered Clouds
10:58 PM 70.0 °F - 69.6 °F 99% 30.04 in 8.0 mi Calm Calm - N/A   Scattered Clouds
11:58 PM 70.5 °F - 70.2 °F 99% 30.03 in 9.0 mi Calm Calm - N/A   Scattered Clouds